Regional Weather Roundup
Issued by NWS

Home | Current Version | Previous Version | Text Only | Print | Product List | Glossary On
Versions: 1 2 3 4 5 6 7 8 9 10 11 12 13 14 15 16 17 18 19 20 21 22 23 24 25 26 27 28 29 30 31 32 33 34 35 36 37 38 39 40 41 42 43 44 45 46 47 48 49 50
000
ASUS43 KMPX 060001
RWRMN
WEATHER ROUNDUP FOR MINNESOTA
NATIONAL WEATHER SERVICE TWIN CITIES/CHANHASSEN MN
700 PM CDT THU MAY 05 2016


NOTE: "FAIR" INDICATES FEW OR NO CLOUDS BELOW 12,000 FEET WITH NO
SIGNIFICANT WEATHER AND/OR OBSTRUCTIONS TO VISIBILITY. N/A MEANS
CURRENT SKY AND/OR WEATHER CONDITIONS ARE NOT AVAILABLE.

MNZ060>063-068>070-060100-
   Twin Cities Metro

CITY           SKY/WX    TMP DP  RH WIND       PRES   REMARKS
TWIN CITIES    SUNNY     78  35  21 SW7       29.89F
6HR MIN TEMP:  64; 6HR MAX TEMP:  79; 6HR PCP: TRACE;

ST PAUL        SUNNY     75  39  27 SW9       29.89F
CRYSTAL        SUNNY     78  38  23 SW10      29.87F
BLAINE         SUNNY     79  37  22 SW10      29.88F
EDEN PRAIRIE   SUNNY     78  37  22 VRB7      29.88F
6HR MIN TEMP:  68; 6HR MAX TEMP:  79;

SOUTH ST PAUL  SUNNY     76  35  22 W5        29.89F
LAKE ELMO      FAIR      73  41  31 SW6       29.90F
$$
MNZ001>005-007-008-013>017-022>024-027-028-060100-
   Northwest Minnesota

CITY           SKY/WX    TMP DP  RH WIND       PRES   REMARKS
BEMIDJI        SUNNY     85  36  17 W16G22    29.76F
HALLOCK        SUNNY     90  27  10 W18       29.66F
ROSEAU         SUNNY     90  30  12 NW6       29.68S
WARROAD        SUNNY     88  48  25 CALM      29.68S
THIEF RVR FALL SUNNY     90  34  13 SW15      29.74S
CROOKSTON      SUNNY     90  34  13 W15       29.73F
FOSSTON        SUNNY     88  30  12 W12       29.77S
DETROIT LAKES  SUNNY     82  34  17 SW12      29.82F
MOORHEAD       SUNNY     90  32  12 SW15G21   29.77F
PARK RAPIDS    CLOUDY    84  37  18 W14       29.79F
MAHNOMEN       FAIR      87  33  14 W16       29.77S
$$
MNZ006-009>011-018-025>026-060100-
   North Central Minnesota

CITY           SKY/WX    TMP DP  RH WIND       PRES   REMARKS
BAUDETTE       SUNNY     86  40  19 NW8       29.68S
FLAG ISLAND    SUNNY     81  36  19 NW8       29.66S
INTL FALLS     CLOUDY    86  45  23 SW6       29.68F
6HR MIN TEMP:  79; 6HR MAX TEMP:  89;

WASKISH        SUNNY     75  46  35 SW14      29.72S
BIG FORK       SUNNY     84  41  21 SW10      29.74F
LONGVILLE      SUNNY     82  43  24 SW7       29.79F
GRAND RAPIDS   SUNNY     81  43  26 SW8       29.80F
CRANE LAKE     SUNNY     82  39  21 CALM      29.72F
ORR            SUNNY     84  36  17 CALM      29.70F
COOK           SUNNY     82  43  24 SW7       29.74F
WALKER         FAIR      83  42  24 SW15      29.77F
$$
MNZ012-019>021-037-060100-
   Northeast Minnesota

CITY           SKY/WX    TMP DP  RH WIND       PRES   REMARKS
DULUTH         SUNNY     77  40  26 W17       29.80F
6HR MIN TEMP:  64; 6HR MAX TEMP:  79;

ELY            SUNNY     81  37  21 SW8       29.75F
HIBBING        SUNNY     80  40  23 W10       29.77F
EVELETH        SUNNY     81  37  21 W12       29.78F
DULUTH HARBOR  SUNNY     79  39  24 SW15      29.78F
TWO HARBORS      N/A     81  48  32 SW12      29.76F
SILVER BAY     SUNNY     73  37  27 S6        29.76F
GRAND MARAIS     N/A     50  33  52 CALM      29.80F
G MARAIS ARPRT CLOUDY    63  36  36 S10       29.82F
$$
MNZ029>031-032-039>041-046>048-054>057-064-060100-
   West Central Minnesota

CITY           SKY/WX    TMP DP  RH WIND       PRES   REMARKS
FERGUS FALLS   SUNNY     84  41  21 SW13      29.77F
WHEATON        SUNNY     86  43  22 SW12      29.84F
MORRIS         SUNNY     82  41  23 SW14      29.84S
ALEXANDRIA     SUNNY     81  42  25 SW12      29.86F
ELBOW LAKE     FAIR      83  39  21 SW13      29.84S
WADENA         MOSUNNY   82  43  24 SW13G20   29.82S
GLENWOOD       SUNNY     81  43  26 SW16      29.87F
APPLETON       SUNNY     82  36  18 SW9       29.85F
BENSON         SUNNY     81  37  21 W12G18    29.85F
ORTONVILLE     SUNNY     82  39  21 SW10      29.85S
MADISON        SUNNY     81  37  21 SW12      29.87S
WILLMAR        FAIR      82  43  24 SW15      29.88F
$$
MNZ033>034-036-042>043-049>051-058-059-060100-
   Central Minnesota

CITY           SKY/WX    TMP DP  RH WIND       PRES   REMARKS
ST CLOUD       SUNNY     80  40  23 SW10      29.86F
6HR MIN TEMP:  72; 6HR MAX TEMP:  81;

SAUK CENTRE      N/A     81  45  28 SW9       29.86F
PAYNESVILLE    SUNNY     82  38  21 SW9       29.88F
AITKIN         SUNNY     82  34  17 SW8       29.80F
PINE RIVER     SUNNY     82  48  30 SW7       29.84F
BRAINERD       SUNNY     80  41  24 SW15      29.83F
STAPLES        SUNNY     82  37  20 SW8       29.82F
LONG PRAIRIE   FAIR      81  43  26 SW12      29.86F
LITTLE FALLS   SUNNY     81  37  21 SW9       29.85F
LITCHFIELD     SUNNY     82  39  21 W6        29.88S
BUFFALO        SUNNY     78  39  24 SW6       29.88F
MAPLE LAKE     SUNNY     80  42  26 SW5       29.88F
HUTCHINSON     SUNNY     82  43  25 SW9G20    29.89F
$$
MNZ037-044-045-052-053-060100-
   East Central Minnesota

CITY           SKY/WX    TMP DP  RH WIND       PRES   REMARKS
PRINCETON      SUNNY     81  39  22 SW9       29.86F
MORA           SUNNY     75  37  25 SW8       29.87F
CAMBRIDGE        N/A     81  54  39 SW7       29.85F
RUSH CITY      SUNNY     76  39  26 SW6       29.87S
MOOSE LAKE     SUNNY     79  43  27 SW12      29.81F
HINCKLEY       CLOUDY    77  43  29 SW10      29.85F
CLOQUET        SUNNY     79  34  19 SW14      29.81F
MCGREGOR       SUNNY     79  41  25 SW6G17    29.82F
$$
MNZ071>073-080-081-089-090-097-098-060100-
   Southwest Minnesota

CITY           SKY/WX    TMP DP  RH WIND       PRES   REMARKS
MONTEVIDEO     SUNNY     82  43  24 W9        29.89S
GRANITE FALLS  SUNNY     84  43  23 S13G18    29.89F
CANBY          SUNNY     82  43  25 SW8       29.89F
MARSHALL       SUNNY     80  45  28 SW13      29.90F
REDWOOD FALLS  SUNNY     80  41  24 SW9       29.89F
OLIVIA         SUNNY     79  41  25 SW12G17   29.88F
PIPESTONE      SUNNY     75  41  29 SW10      29.94F
WINDOM         SUNNY     77  37  24 SW8       29.94F
WORTHINGTON    SUNNY     77  40  26 SW12      29.96F
JACKSON        SUNNY     77  32  19 SW9       29.96F
TRACY          SUNNY     79  43  28 SW10      29.92F
SLAYTON        SUNNY     78  37  23 SW13G18   29.95F
$$
MNZ065>067-074>077-082>085-091>093-060100-
   South Central Minnesota

CITY           SKY/WX    TMP DP  RH WIND       PRES   REMARKS
MANKATO        SUNNY     79  37  22 SW12      29.92F
ST JAMES       SUNNY     73  36  25 SW10      29.93F
FAIRMONT       SUNNY     75  36  23 SW9       29.94F
GLENCOE        SUNNY     80  43  27 SW7       29.89F
OWATONNA       SUNNY     75  32  20 SW10      29.93F
WASECA         SUNNY     77  37  24 SW13      29.94F
ALBERT LEA     SUNNY     75  34  22 W7        29.95S
$$
MNZ078>079-086>088-094>096-060100-
   Southeast Minnesota

CITY           SKY/WX    TMP DP  RH WIND       PRES   REMARKS
ROCHESTER      SUNNY     71  37  28 SW10      29.94F
6HR MIN TEMP:  63; 6HR MAX TEMP:  73;

RED WING       SUNNY     73  37  27 CALM      29.89F
STANTON        SUNNY     75  36  24 SW8       29.90F
DODGE CENTER   SUNNY     73  36  25 W9        29.94F
WINONA         MOSUNNY   72  37  28 CALM      29.93F
AUSTIN         SUNNY     73  36  25 W7        29.94F
PRESTON        SUNNY     68  38  33 W9        29.96F
$$
ABBREVIATIONS USED IN REMARKS
   TC - TEMPERATURES IN CELSIUS
  WCI - WIND CHILL INDEX
   HX - HEAT INDEX
  VSB - VISIBILITY
$$



USA.gov is the U.S. government's official web portal to all federal, state and local government web resources and services.